Weather History for Houston Hull, TX

Change the Weather History Date:

Friday, December 14, 2012

  Actual Average Record
Temperature  
Mean Temperature 64 °F -  
Max Temperature 72 °F 65 °F 90 °F (1948)
Min Temperature 55 °F 44 °F 22 °F (1989)
Degree Days  
Heating Degree Days 2    
Growing Degree Days 14 (Base 50)    
Moisture  
Dew Point 57 °F    
Average Humidity 74    
Maximum Humidity 84    
Minimum Humidity 64    
Precipitation  
Precipitation 0.00 in - - ()
Sea Level Pressure  
Sea Level Pressure 30.09 in    
Wind  
Wind Speed 7 mph (ESE)    
Max Wind Speed 15 mph    
Max Gust Speed 21 mph    
Visibility 10 miles    
Events      
Averages and records for this station are not official NWS values.
T = Trace of Precipitation, MM = Missing Value Source: NWS Daily Summary

Daily Weather History Graph

Daily Weather History Graph

Search for Another Location

Airport:

Trip Planner

Search our weather history database for the weather conditions in past years. The results will help you decide how hot, cold, wet, or windy it might be!

Date:

Astronomy

Dec. 14, 2012 Rise Set
Actual Time 7:09 AM CST 5:25 PM CST
Civil Twilight 6:43 AM CST 5:51 PM CST
Nautical Twilight 6:13 AM CST 6:21 PM CST
Astronomical Twilight 5:44 AM CST 6:50 PM CST
Moon 8:19 AM CST (12/14) 7:14 PM CST (12/14)
Length of Visible Light 11h 08m
Length of Day
10h 15m
Waxing Crescent, 3% of the Moon is Illuminated
Dec 14
Waxing Crescent
Dec 19
First Quarter
Dec 28
Full
Jan 4
Last Quarter
Jan 11
New

Hourly Weather History & Observations

Time (CST) Temp. Dew Point Humidity Pressure Visibility Wind Dir Wind Speed Gust Speed Precip Events Conditions
12:53 AM 55.9 °F 44.1 °F 64% 30.24 in 10.0 mi East 3.5 mph - N/A   Overcast
1:53 AM 55.9 °F 45.0 °F 67% 30.22 in 10.0 mi East 3.5 mph - N/A   Overcast
2:53 AM 57.0 °F 46.0 °F 67% 30.21 in 10.0 mi East 4.6 mph - N/A   Overcast
3:53 AM 57.9 °F 48.0 °F 70% 30.20 in 10.0 mi East 5.8 mph - N/A   Overcast
4:53 AM 57.0 °F 48.9 °F 74% 30.19 in 10.0 mi East 5.8 mph - N/A   Overcast
5:53 AM 57.9 °F 48.9 °F 72% 30.19 in 10.0 mi East 5.8 mph - N/A   Overcast
6:53 AM 57.9 °F 50.0 °F 75% 30.20 in 10.0 mi East 6.9 mph - N/A   Overcast
7:53 AM 59.0 °F 51.1 °F 75% 30.19 in 10.0 mi East 8.1 mph - N/A   Mostly Cloudy
8:53 AM 60.1 °F 52.0 °F 75% 30.21 in 10.0 mi ESE 5.8 mph - N/A   Mostly Cloudy
9:53 AM 62.1 °F 54.0 °F 75% 30.20 in 10.0 mi ESE 8.1 mph - N/A   Scattered Clouds
10:53 AM 64.9 °F 57.0 °F 75% 30.19 in 10.0 mi ESE 5.8 mph - N/A   Mostly Cloudy
11:53 AM 66.9 °F 57.9 °F 73% 30.15 in 10.0 mi East 6.9 mph - N/A   Mostly Cloudy
12:53 PM 68.0 °F 59.0 °F 73% 30.09 in 10.0 mi ESE 10.4 mph - N/A   Partly Cloudy
1:53 PM 70.0 °F 60.1 °F 71% 30.05 in 10.0 mi ESE 10.4 mph - N/A   Clear
4:53 PM 72.0 °F 62.1 °F 71% 30.00 in 10.0 mi SSE 12.7 mph 20.7 mph N/A   Mostly Cloudy
5:15 PM 71.6 °F 62.6 °F 73% 29.97 in 10.0 mi SSE 11.5 mph - N/A   Overcast
5:53 PM 71.1 °F 62.1 °F 73% 29.98 in 10.0 mi SSE 13.8 mph - N/A   Scattered Clouds
6:18 PM 69.8 °F 62.6 °F 78% 29.94 in 10.0 mi SSE 15.0 mph - N/A   Mostly Cloudy
6:34 PM 69.8 °F 62.6 °F 78% 29.95 in 10.0 mi SSE 12.7 mph - N/A   Scattered Clouds
6:53 PM 70.0 °F 63.0 °F 78% 29.99 in 10.0 mi SSE 10.4 mph - N/A   Mostly Cloudy
7:53 PM 70.0 °F 63.0 °F 78% 30.01 in 10.0 mi South 8.1 mph - N/A   Partly Cloudy
8:53 PM 70.0 °F 63.0 °F 78% 29.99 in 10.0 mi SSE 11.5 mph - N/A   Overcast
9:53 PM 70.0 °F 64.0 °F 81% 29.99 in 10.0 mi SE 8.1 mph - N/A   Overcast
10:53 PM 70.0 °F 64.0 °F 81% 29.97 in 10.0 mi SSE 12.7 mph - N/A   Overcast
11:53 PM 70.0 °F 64.9 °F 84% 29.96 in 10.0 mi South 11.5 mph - N/A   Overcast